QTR928 OTHH-RPLL

Flight info

Callsign QTR928
Flight time N/A
Altitude 28000
Route DATRI L564 BAT/N0516F290 L564 KUTNA/N0505F330 DCT KATIT DCT MIDGU M440 TULBU DCT VAXIM L301 RASKI L639 BPL A791 BEGUM/N0500F350 A791 CEA B465 CTG A599 LINSO/K0924S1070 A599 GYA/K0917S1130 DCT POU B330 TAMOT/N0494F370 B330 BIGEX A461 AVMUP W16 TADEL TADEL7R
Aircraft B77W/H-SDE1E2E3FGHIJ2J3J4J5M1RWXY/LB1D1

Departure

Time 2026-05-05 16:05
Airport Hamad International Airport (OTHH)

Arrival

Time N/A
Airport Ninoy Aquino International Airport (RPLL)
Time Latitude Longitude Altitude Speed Heading
2026-05-05 15:33 25.26274 51.61184 27 ft 0 kts 68°
2026-05-05 15:53 25.26267 51.61164 26 ft 4 kts 68°
2026-05-05 15:53 25.26258 51.61141 27 ft 4 kts 73°
2026-05-05 15:53 25.26254 51.61115 27 ft 4 kts 98°
2026-05-05 15:54 25.26261 51.61094 26 ft 4 kts 134°
2026-05-05 15:54 25.26273 51.61083 25 ft 4 kts 153°
2026-05-05 15:54 25.26297 51.61072 25 ft 4 kts 159°
2026-05-05 15:54 25.26305 51.61069 24 ft 0 kts 158°
2026-05-05 15:59 25.26289 51.61076 24 ft 3 kts 159°
2026-05-05 16:00 25.26244 51.61073 25 ft 9 kts 207°
2026-05-05 16:00 25.26207 51.61015 27 ft 9 kts 248°
2026-05-05 16:00 25.26179 51.60938 27 ft 12 kts 248°
2026-05-05 16:00 25.26149 51.60854 27 ft 12 kts 248°
2026-05-05 16:01 25.26118 51.60770 27 ft 12 kts 242°
2026-05-05 16:01 25.26044 51.60749 27 ft 12 kts 167°
2026-05-05 16:01 25.25967 51.60782 26 ft 12 kts 157°
2026-05-05 16:01 25.25890 51.60816 26 ft 12 kts 159°
2026-05-05 16:02 25.25810 51.60842 26 ft 12 kts 184°
2026-05-05 16:02 25.25755 51.60778 29 ft 12 kts 247°
2026-05-05 16:02 25.25729 51.60707 30 ft 8 kts 248°
2026-05-05 16:02 25.25727 51.60703 30 ft 0 kts 248°
2026-05-05 16:03 25.25720 51.60683 28 ft 8 kts 248°
2026-05-05 16:03 25.25691 51.60599 24 ft 13 kts 255°
2026-05-05 16:03 25.25707 51.60498 23 ft 14 kts 302°
2026-05-05 16:04 25.25790 51.60441 25 ft 17 kts 338°
2026-05-05 16:04 25.26008 51.60345 26 ft 62 kts 338°
2026-05-05 16:04 25.26630 51.60071 20 ft 130 kts 338°
2026-05-05 16:04 25.27658 51.59617 20 ft 185 kts 339°
2026-05-05 16:05 25.28919 51.59062 382 ft 197 kts 340°
2026-05-05 16:05 25.30214 51.58505 915 ft 203 kts 340°
2026-05-05 16:05 25.31534 51.57925 1478 ft 203 kts 340°
2026-05-05 16:05 25.32862 51.57332 1798 ft 214 kts 340°
2026-05-05 16:06 25.34303 51.56689 1954 ft 231 kts 339°
2026-05-05 16:06 25.35852 51.56000 2115 ft 248 kts 339°
2026-05-05 16:06 25.37490 51.55269 2423 ft 259 kts 339°
2026-05-05 16:06 25.39195 51.54507 2808 ft 267 kts 339°
2026-05-05 16:07 25.40909 51.53743 3297 ft 271 kts 339°
2026-05-05 16:07 25.42662 51.52963 3831 ft 270 kts 339°
2026-05-05 16:07 25.44404 51.52190 3993 ft 273 kts 339°
2026-05-05 16:07 25.46169 51.51395 3994 ft 271 kts 335°
2026-05-05 16:08 25.47633 51.50109 3989 ft 274 kts 306°
2026-05-05 16:08 25.48340 51.48153 4296 ft 276 kts 279°
2026-05-05 16:08 25.48393 51.46017 4825 ft 280 kts 269°
2026-05-05 16:08 25.48290 51.43867 5421 ft 280 kts 268°
2026-05-05 16:09 25.48177 51.41719 6057 ft 279 kts 268°
2026-05-05 16:09 25.48067 51.39575 6626 ft 279 kts 268°
2026-05-05 16:09 25.47962 51.37426 6993 ft 281 kts 268°
2026-05-05 16:09 25.47732 51.35272 6975 ft 285 kts 252°
2026-05-05 16:10 25.46742 51.33377 6992 ft 289 kts 226°
2026-05-05 16:10 25.45073 51.32141 6999 ft 292 kts 200°
2026-05-05 16:10 25.43087 51.31734 7184 ft 291 kts 185°
2026-05-05 16:10 25.41049 51.31629 7126 ft 299 kts 182°
2026-05-05 16:11 25.38983 51.31586 7343 ft 292 kts 182°
2026-05-05 16:11 25.32796 51.31629 8483 ft 302 kts 169°
2026-05-05 16:12 25.30767 51.32308 8923 ft 307 kts 160°
2026-05-05 16:12 25.26794 51.34122 10003 ft 311 kts 158°
2026-05-05 16:13 25.20353 51.36949 10633 ft 360 kts 160°
2026-05-05 16:13 25.17948 51.37957 10771 ft 379 kts 160°
2026-05-05 16:13 25.15463 51.38985 11016 ft 393 kts 160°
2026-05-05 16:14 25.10236 51.41117 12113 ft 406 kts 160°
2026-05-05 16:14 25.04906 51.43274 13541 ft 411 kts 160°
2026-05-05 16:15 24.99480 51.45466 14779 ft 417 kts 161°
2026-05-05 16:15 24.94002 51.47677 16046 ft 421 kts 161°
2026-05-05 16:16 24.88451 51.49915 17295 ft 427 kts 161°
2026-05-05 16:16 24.82830 51.52180 18442 ft 433 kts 161°
2026-05-05 16:17 24.77131 51.54474 19469 ft 439 kts 161°
2026-05-05 16:17 24.74242 51.55587 19946 ft 440 kts 166°
2026-05-05 16:18 24.68187 51.56196 20865 ft 443 kts 186°
2026-05-05 16:18 24.65142 51.55639 21340 ft 442 kts 194°
2026-05-05 16:18 24.59085 51.54121 22264 ft 450 kts 194°
2026-05-05 16:19 24.56008 51.53354 22753 ft 453 kts 194°
2026-05-05 16:19 24.52920 51.52600 23233 ft 456 kts 194°
2026-05-05 16:19 24.46681 51.51112 24032 ft 461 kts 194°
2026-05-05 16:20 24.40427 51.49638 24832 ft 464 kts 194°
2026-05-05 16:20 24.34084 51.48142 25591 ft 468 kts 194°
2026-05-05 16:21 24.27681 51.46632 26329 ft 472 kts 195°
2026-05-05 16:22 24.17839 51.45097 27354 ft 484 kts 183°
2026-05-05 16:22 24.11075 51.45169 27993 ft 488 kts 182°
2026-05-05 16:23 24.04250 51.45237 28573 ft 492 kts 183°
2026-05-05 16:23 24.00863 51.45257 28837 ft 494 kts 183°
2026-05-05 16:23 23.93962 51.45278 29344 ft 498 kts 183°